This demonstration page uses our WeatherBlox Daily Observations layout. Learn more.

Left ArrowRight Arrow

39.01783, -85.05884

Hourly Observations for December 20, 2020

Temp ( °F °C ) Dew Point ( °F °C ) Humidity (%) Winds ( mph kmh ) Pressure ( in mb ) Visibility ( mi km ) Precip ( " mm )
12:41 am 00:41 Cloudy with Light Rain 39 3.9 36 2.2 89 89 SSW 12 19 30.06 1018 6 10 0.03 0.76
12:52 am 00:52 Cloudy with Light Rain 39 3.9 36 2.2 89 89 SW 14 22 30.04 1017 6 10 0.03 0.76
1:39 am 01:39 Cloudy with Light Rain 39 3.9 36 2.2 89 89 SSW 8 13 30.05 1018 8 13 0.02 0.51
1:52 am 01:52 Cloudy with Light Rain 39 3.9 36 2.2 89 89 SSW 8 13 30.02 1017 7 11 0.02 0.51
2:15 am 02:15 Cloudy with Light Rain 39 3.9 36 2.2 89 89 SSW 9 15 30.04 1017 6 10 0.01 0.25
2:52 am 02:52 Cloudy with Light Rain 39 3.9 36 2.2 89 89 SSW 12 19 30.03 1017 7 11 0.03 0.76
3:52 am 03:52 Cloudy with Mist and Fog 39 3.9 36 2.2 89 89 SSW 8 13 30.03 1017 4 6 0.01 0.25
4:11 am 04:11 Cloudy with Mist and Fog 39 3.9 36 2.2 89 89 SSW 9 15 30.05 1018 3 4 N/A
4:38 am 04:38 Cloudy with Mist and Fog 39 3.9 37 2.8 93 93 SSW 7 11 30.04 1017 3 4 N/A
4:52 am 04:52 Cloudy with Mist and Fog 39 3.9 37 2.8 93 93 SSW 7 11 30.02 1017 3 4 N/A
5:19 am 05:19 Cloudy with Mist and Fog 39 3.9 37 2.8 93 93 SSW 7 11 30.04 1017 3 5 N/A
5:42 am 05:42 Cloudy with Mist and Fog 39 3.9 37 2.8 93 93 SSW 6 9 30.04 1017 2 2 N/A
5:52 am 05:52 Cloudy with Mist and Fog 39 3.9 37 2.8 93 93 SSW 6 9 30.02 1017 2 2 N/A
6:52 am 06:52 Cloudy with Mist and Fog 39 3.9 37 2.8 93 93 SSW 7 11 30.00 1016 2 2 N/A
7:52 am 07:52 Cloudy with Mist and Fog 40 4.4 38 3.3 93 93 SSW 7 11 30.00 1016 0 0 N/A
8:52 am 08:52 Cloudy with Mist and Fog 40 4.4 38 3.3 93 93 SSW 6 9 29.99 1016 0 0 N/A
9:52 am 09:52 Cloudy with Fog 40 4.4 38 3.3 93 93 SW 8 13 29.98 1015 0 0 N/A
10:43 am 10:43 Cloudy with Mist and Fog 41 5 38 3.3 89 89 WSW 8 13 30.02 1017 5 8 N/A
10:52 am 10:52 Cloudy with Mist and Fog 41 5 38 3.3 89 89 SW 9 15 29.99 1016 5 8 N/A
11:09 am 11:09 Cloudy with Mist and Fog 41 5 38 3.3 89 89 WSW 8 13 30.02 1017 6 10 N/A
11:52 am 11:52 Cloudy 42 5.6 38 3.3 85 85 WSW 8 13 29.98 1015 9 14 N/A
11:56 am 11:56 Cloudy 42 5.6 38 3.3 85 85 W 10 17 30.00 1016 9 14 N/A
12:52 pm 12:52 Cloudy 41 5 36 2.2 82 82 WSW 8 13 29.96 1015 9 14 N/A
1:52 pm 13:52 Mostly Cloudy 43 6.1 36 2.2 76 76 SW 14 22 29.93 1014 9 14 N/A
2:52 pm 14:52 Partly Cloudy 46 7.8 36 2.2 68 68 SW 10 17 29.92 1013 10 16 N/A
3:52 pm 15:52 Mostly Cloudy 44 6.7 35 1.7 71 71 SSW 8 13 29.91 1013 10 16 N/A
4:52 pm 16:52 Partly Cloudy 41 5 33 0.6 73 73 SW 6 9 29.92 1013 10 16 N/A
5:52 pm 17:52 Partly Cloudy 39 3.9 32 undefined 76 76 SW 6 9 29.92 1013 10 16 N/A
6:52 pm 18:52 Partly Cloudy 38 3.3 32 undefined 79 79 SSW 6 9 29.92 1013 10 16 N/A
7:52 pm 19:52 Mostly Clear 36 2.2 31 -0.6 82 82 SSW 8 13 29.92 1013 9 14 N/A
8:52 pm 20:52 Clear 35 1.7 31 -0.6 85 85 SSW 8 13 29.91 1013 8 13 N/A
9:52 pm 21:52 Clear 34 1.1 31 -0.6 89 89 SSW 7 11 29.91 1013 7 11 N/A
10:52 pm 22:52 Mostly Clear 35 1.7 31 -0.6 85 85 SSW 7 11 29.92 1013 7 11 N/A
11:52 pm 23:52 Mostly Cloudy 36 2.2 32 undefined 86 86 SSW 7 11 29.91 1013 7 11 N/A

Powered by AerisWeather